Location: Arnolds Mill
(42.3415°N, 73.5951°W)
Time: 09:55:20
(UTC+00:00)

BlueWalker 3 - Pass Details

Date: 24 June 2024
Orbit: 480 x 492 km, 53.2° (Epoch: 13 July)

Event Time Altitude Azimuth Distance (km) Brightness Sun altitude
Rises 01:58:01 0° 273° (W) 2,539 6.2 -12.4°
Reaches altitude 10° 02:00:33 10° 289° (WNW) 1,659 5.5 -12.7°
Maximum altitude 02:03:31 22° 342° (NNW) 1,102 4.6 -13.0°
Drops below altitude 10° 02:06:29 10° 34° (NE) 1,659 4.8 -13.4°
Sets 02:09:01 0° 50° (NE) 2,540 5.5 -13.7°
